Time,TemperatureF,DewpointF,PressureIn,WindDirection,WindDirectionDegrees,WindSpeedMPH,WindSpeedGustMPH,Humidity,HourlyPrecipIn,Conditions,Clouds,dailyrainin,SoftwareType,DateUTC
2013-11-09 00:02:00,44.9,36.1,30.18,ENE,71,0.0,0.0,71,0.00,CLR,,0.00,WeatherDisplay:10.37,2013-11-09 06:02:00,
2013-11-09 00:07:00,44.7,35.9,30.18,ENE,71,0.0,0.0,71,0.00,CLR,,0.00,WeatherDisplay:10.37,2013-11-09 06:07:00,
2013-11-09 00:12:00,44.6,35.8,30.17,ENE,71,0.0,0.0,71,0.00,CLR,,0.00,WeatherDisplay:10.37,2013-11-09 06:12:00,
2013-11-09 00:17:00,44.4,35.9,30.17,ENE,71,0.0,0.0,72,0.00,CLR,,0.00,WeatherDisplay:10.37,2013-11-09 06:17:00,
2013-11-09 00:22:00,44.3,35.8,30.17,ENE,71,0.0,0.0,72,0.00,CLR,,0.00,WeatherDisplay:10.37,2013-11-09 06:22:00,
2013-11-09 00:27:00,44.4,35.9,30.17,ENE,71,0.0,0.0,72,0.00,CLR,,0.00,WeatherDisplay:10.37,2013-11-09 06:27:00,
2013-11-09 00:32:00,44.5,36.0,30.17,ENE,71,0.0,0.0,72,0.00,CLR,,0.00,WeatherDisplay:10.37,2013-11-09 06:32:00,
2013-11-09 00:37:00,44.5,36.0,30.17,ENE,71,0.0,0.0,72,0.00,CLR,,0.00,WeatherDisplay:10.37,2013-11-09 06:37:00,
2013-11-09 00:42:00,44.6,36.1,30.16,ENE,71,0.0,0.0,72,0.00,CLR,,0.00,WeatherDisplay:10.37,2013-11-09 06:42:00,
2013-11-09 00:47:00,44.6,36.1,30.17,ENE,71,0.0,0.0,72,0.00,CLR,,0.00,WeatherDisplay:10.37,2013-11-09 06:47:00,
2013-11-09 00:52:00,44.7,36.2,30.17,ENE,71,0.0,0.0,72,0.00,CLR,,0.00,WeatherDisplay:10.37,2013-11-09 06:52:00,
2013-11-09 00:57:00,44.6,36.1,30.17,ENE,74,0.0,0.0,72,0.00,CLR,,0.00,WeatherDisplay:10.37,2013-11-09 06:57:00,
2013-11-09 01:02:00,44.6,36.1,30.16,East,82,0.0,0.0,72,0.00,CLR,,0.00,WeatherDisplay:10.37,2013-11-09 07:02:00,
2013-11-09 01:07:00,44.5,36.4,30.16,East,82,0.0,0.0,73,0.00,CLR,,0.00,WeatherDisplay:10.37,2013-11-09 07:07:00,
2013-11-09 01:12:00,44.5,36.4,30.16,East,82,0.0,0.0,73,0.00,CLR,,0.00,WeatherDisplay:10.37,2013-11-09 07:12:00,
2013-11-09 01:17:00,44.4,36.3,30.15,East,82,0.0,0.0,73,0.00,CLR,,0.00,WeatherDisplay:10.37,2013-11-09 07:17:00,
2013-11-09 01:22:00,44.4,36.3,30.16,ESE,120,0.0,0.0,73,0.00,CLR,,0.00,WeatherDisplay:10.37,2013-11-09 07:22:00,
2013-11-09 01:27:00,44.3,36.2,30.15,ESE,119,0.0,0.0,73,0.00,CLR,,0.00,WeatherDisplay:10.37,2013-11-09 07:27:00,
2013-11-09 01:32:00,44.3,36.5,30.15,ESE,115,0.0,0.0,74,0.00,CLR,,0.00,WeatherDisplay:10.37,2013-11-09 07:32:00,
2013-11-09 01:37:00,44.3,36.5,30.15,ESE,115,0.0,0.0,74,0.00,CLR,,0.00,WeatherDisplay:10.37,2013-11-09 07:37:00,
2013-11-09 01:42:00,44.2,36.4,30.15,ESE,115,0.0,0.0,74,0.00,CLR,,0.00,WeatherDisplay:10.37,2013-11-09 07:42:00,
2013-11-09 01:47:00,44.1,36.3,30.15,ESE,115,0.0,0.0,74,0.00,CLR,,0.00,WeatherDisplay:10.37,2013-11-09 07:47:00,
2013-11-09 01:52:00,44.0,36.2,30.15,ESE,119,0.0,0.0,74,0.00,CLR,,0.00,WeatherDisplay:10.37,2013-11-09 07:52:00,
2013-11-09 01:57:00,43.9,36.5,30.15,ESE,119,0.0,0.0,75,0.00,CLR,,0.00,WeatherDisplay:10.37,2013-11-09 07:57:00,
2013-11-09 02:02:00,43.7,36.3,30.16,ESE,115,0.0,0.0,75,0.00,CLR,,0.00,WeatherDisplay:10.37,2013-11-09 08:02:00,
2013-11-09 02:07:00,43.6,36.2,30.15,ESE,115,0.0,0.0,75,0.00,CLR,,0.00,WeatherDisplay:10.37,2013-11-09 08:07:00,
2013-11-09 02:12:00,43.4,36.0,30.16,ESE,115,0.0,0.0,75,0.00,CLR,,0.00,WeatherDisplay:10.37,2013-11-09 08:12:00,
2013-11-09 02:17:00,43.3,36.2,30.15,ESE,115,0.0,0.0,76,0.00,CLR,,0.00,WeatherDisplay:10.37,2013-11-09 08:17:00,
2013-11-09 02:22:00,43.1,36.0,30.15,ESE,115,0.0,0.0,76,0.00,CLR,,0.00,WeatherDisplay:10.37,2013-11-09 08:22:00,
2013-11-09 02:27:00,43.0,36.0,30.15,ESE,115,0.0,0.0,76,0.00,CLR,,0.00,WeatherDisplay:10.37,2013-11-09 08:27:00,
2013-11-09 02:32:00,42.9,36.2,30.15,ESE,115,0.0,0.0,77,0.00,CLR,,0.00,WeatherDisplay:10.37,2013-11-09 08:32:00,
2013-11-09 02:37:00,42.8,36.1,30.15,ESE,115,0.0,0.0,77,0.00,CLR,,0.00,WeatherDisplay:10.37,2013-11-09 08:37:00,
2013-11-09 02:42:00,42.7,36.0,30.15,ESE,115,0.0,0.0,77,0.00,CLR,,0.00,WeatherDisplay:10.37,2013-11-09 08:42:00,
2013-11-09 02:47:00,42.6,36.2,30.16,SE,141,0.0,0.0,78,0.00,CLR,,0.00,WeatherDisplay:10.37,2013-11-09 08:47:00,
2013-11-09 02:52:00,42.6,36.2,30.16,SE,141,0.0,0.0,78,0.00,CLR,,0.00,WeatherDisplay:10.37,2013-11-09 08:52:00,
2013-11-09 02:57:00,42.7,36.3,30.16,SE,141,0.0,0.0,78,0.00,CLR,,0.00,WeatherDisplay:10.37,2013-11-09 08:57:00,
2013-11-09 03:02:00,42.9,36.5,30.16,SE,141,0.0,0.0,78,0.00,CLR,,0.00,WeatherDisplay:10.37,2013-11-09 09:02:00,
2013-11-09 03:07:00,43.1,36.7,30.16,SE,141,0.0,0.0,78,0.00,CLR,,0.00,WeatherDisplay:10.37,2013-11-09 09:07:00,
2013-11-09 03:12:00,43.3,36.6,30.16,SE,141,0.0,0.0,77,0.00,CLR,,0.00,WeatherDisplay:10.37,2013-11-09 09:12:00,
2013-11-09 03:17:00,43.4,36.7,30.16,SE,141,0.0,0.0,77,0.00,CLR,,0.00,WeatherDisplay:10.37,2013-11-09 09:17:00,
2013-11-09 03:22:00,43.6,36.5,30.16,SE,141,0.0,0.0,76,0.00,CLR,,0.00,WeatherDisplay:10.37,2013-11-09 09:22:00,
2013-11-09 03:27:00,43.8,36.7,30.16,SE,141,0.0,0.0,76,0.00,CLR,,0.00,WeatherDisplay:10.37,2013-11-09 09:27:00,
2013-11-09 03:32:00,44.0,36.6,30.15,SE,141,0.0,0.0,75,0.00,CLR,,0.00,WeatherDisplay:10.37,2013-11-09 09:32:00,
2013-11-09 03:37:00,44.1,36.7,30.16,SE,141,0.0,0.0,75,0.00,CLR,,0.00,WeatherDisplay:10.37,2013-11-09 09:37:00,
2013-11-09 03:42:00,44.1,36.7,30.16,SE,141,0.0,0.0,75,0.00,CLR,,0.00,WeatherDisplay:10.37,2013-11-09 09:42:00,
2013-11-09 03:47:00,44.1,36.7,30.16,SE,141,0.0,0.0,75,0.00,CLR,,0.00,WeatherDisplay:10.37,2013-11-09 09:47:00,
2013-11-09 03:52:00,44.2,36.8,30.15,SE,141,0.0,0.0,75,0.00,CLR,,0.00,WeatherDisplay:10.37,2013-11-09 09:52:00,
2013-11-09 03:57:00,44.2,36.8,30.15,SE,141,0.0,0.0,75,0.00,CLR,,0.00,WeatherDisplay:10.37,2013-11-09 09:57:00,
2013-11-09 04:02:00,44.3,36.9,30.15,SE,141,0.0,0.0,75,0.00,CLR,,0.00,WeatherDisplay:10.37,2013-11-09 10:02:00,
2013-11-09 04:07:00,44.4,37.0,30.15,SE,141,0.0,0.0,75,0.00,CLR,,0.00,WeatherDisplay:10.37,2013-11-09 10:07:00,
2013-11-09 04:12:00,44.4,37.0,30.15,SE,141,0.0,0.0,75,0.00,CLR,,0.00,WeatherDisplay:10.37,2013-11-09 10:12:00,
2013-11-09 04:17:00,44.3,36.9,30.15,SE,141,0.0,0.0,75,0.00,CLR,,0.00,WeatherDisplay:10.37,2013-11-09 10:17:00,
2013-11-09 04:22:00,44.2,37.1,30.15,SE,140,0.0,0.0,76,0.00,CLR,,0.00,WeatherDisplay:10.37,2013-11-09 10:22:00,
2013-11-09 04:27:00,44.1,37.0,30.15,SE,140,0.0,0.0,76,0.00,CLR,,0.00,WeatherDisplay:10.37,2013-11-09 10:27:00,
2013-11-09 04:32:00,44.1,37.0,30.15,SE,140,0.0,0.0,76,0.00,CLR,,0.00,WeatherDisplay:10.37,2013-11-09 10:32:00,
2013-11-09 04:37:00,44.0,36.9,30.15,SE,140,0.0,0.0,76,0.00,CLR,,0.00,WeatherDisplay:10.37,2013-11-09 10:37:00,
2013-11-09 04:42:00,43.9,36.8,30.15,SE,140,0.0,0.0,76,0.00,CLR,,0.00,WeatherDisplay:10.37,2013-11-09 10:42:00,
2013-11-09 04:47:00,43.8,36.7,30.15,SE,140,0.0,0.0,76,0.00,CLR,,0.00,WeatherDisplay:10.37,2013-11-09 10:47:00,
2013-11-09 04:52:00,43.8,37.1,30.15,SE,140,0.0,0.0,77,0.00,CLR,,0.00,WeatherDisplay:10.37,2013-11-09 10:52:00,
2013-11-09 04:57:00,43.7,37.0,30.15,SE,140,0.0,0.0,77,0.00,CLR,,0.00,WeatherDisplay:10.37,2013-11-09 10:57:00,
2013-11-09 05:02:00,43.6,36.9,30.15,SE,140,0.0,0.0,77,0.00,CLR,,0.00,WeatherDisplay:10.37,2013-11-09 11:02:00,
2013-11-09 05:07:00,43.5,36.8,30.15,SE,140,0.0,0.0,77,0.00,CLR,,0.00,WeatherDisplay:10.37,2013-11-09 11:07:00,
2013-11-09 05:12:00,43.3,36.9,30.15,SE,140,0.0,0.0,78,0.00,CLR,,0.00,WeatherDisplay:10.37,2013-11-09 11:12:00,
2013-11-09 05:17:00,43.2,36.8,30.15,SE,140,0.0,0.0,78,0.00,CLR,,0.00,WeatherDisplay:10.37,2013-11-09 11:17:00,
2013-11-09 05:22:00,43.2,36.8,30.15,SE,140,0.0,0.0,78,0.00,CLR,,0.00,WeatherDisplay:10.37,2013-11-09 11:22:00,
2013-11-09 05:27:00,43.2,36.8,30.16,SE,140,0.0,0.0,78,0.00,CLR,,0.00,WeatherDisplay:10.37,2013-11-09 11:27:00,
2013-11-09 05:32:00,43.1,37.0,30.16,SE,140,0.0,0.0,79,0.00,CLR,,0.00,WeatherDisplay:10.37,2013-11-09 11:32:00,
2013-11-09 05:37:00,43.1,37.0,30.16,SE,140,0.0,0.0,79,0.00,CLR,,0.00,WeatherDisplay:10.37,2013-11-09 11:37:00,
2013-11-09 05:42:00,43.1,37.0,30.16,SE,140,0.0,0.0,79,0.00,CLR,,0.00,WeatherDisplay:10.37,2013-11-09 11:42:00,
2013-11-09 05:47:00,43.2,37.1,30.16,SE,140,0.0,0.0,79,0.00,CLR,,0.00,WeatherDisplay:10.37,2013-11-09 11:47:00,
2013-11-09 05:52:00,43.2,37.1,30.17,SE,140,0.0,0.0,79,0.00,CLR,,0.00,WeatherDisplay:10.37,2013-11-09 11:52:00,
2013-11-09 05:57:00,43.2,37.1,30.17,SE,140,0.0,0.0,79,0.00,CLR,,0.00,WeatherDisplay:10.37,2013-11-09 11:57:00,
2013-11-09 06:02:00,43.2,37.1,30.17,SE,140,0.0,0.0,79,0.00,CLR,,0.00,WeatherDisplay:10.37,2013-11-09 12:02:00,
2013-11-09 06:07:00,43.2,37.1,30.17,SE,140,0.0,0.0,79,0.00,CLR,,0.00,WeatherDisplay:10.37,2013-11-09 12:07:00,
2013-11-09 06:13:00,43.1,37.0,30.17,SE,140,0.0,0.0,79,0.00,CLR,,0.00,WeatherDisplay:10.37,2013-11-09 12:13:00,
2013-11-09 06:18:00,43.0,36.9,30.16,SE,140,0.0,0.0,79,0.00,CLR,,0.00,WeatherDisplay:10.37,2013-11-09 12:18:00,
2013-11-09 06:23:00,43.0,36.9,30.16,SE,140,0.0,0.0,79,0.00,CLR,,0.00,WeatherDisplay:10.37,2013-11-09 12:23:00,
2013-11-09 06:28:00,42.9,36.8,30.16,SE,140,0.0,0.0,79,0.00,CLR,,0.00,WeatherDisplay:10.37,2013-11-09 12:28:00,
2013-11-09 06:33:00,42.9,36.8,30.17,SE,140,0.0,0.0,79,0.00,CLR,,0.00,WeatherDisplay:10.37,2013-11-09 12:33:00,
2013-11-09 06:38:00,42.8,37.1,30.17,SE,140,0.0,0.0,80,0.00,CLR,,0.00,WeatherDisplay:10.37,2013-11-09 12:38:00,
2013-11-09 06:43:00,42.7,37.0,30.17,SE,140,0.0,0.0,80,0.00,CLR,,0.00,WeatherDisplay:10.37,2013-11-09 12:43:00,
2013-11-09 06:48:00,42.7,37.0,30.17,SE,140,0.0,0.0,80,0.00,CLR,,0.00,WeatherDisplay:10.37,2013-11-09 12:48:00,
2013-11-09 06:53:00,42.6,37.2,30.17,SE,140,0.0,0.0,81,0.00,CLR,,0.00,WeatherDisplay:10.37,2013-11-09 12:53:00,
2013-11-09 06:58:00,42.7,37.3,30.17,SE,140,0.0,0.0,81,0.00,CLR,,0.00,WeatherDisplay:10.37,2013-11-09 12:58:00,
2013-11-09 07:03:00,42.7,37.3,30.17,SE,140,0.0,0.0,81,0.00,CLR,,0.00,WeatherDisplay:10.37,2013-11-09 13:03:00,
2013-11-09 07:08:00,42.8,37.4,30.18,SW,236,0.0,0.0,81,0.00,CLR,,0.00,WeatherDisplay:10.37,2013-11-09 13:08:00,
2013-11-09 07:13:00,42.9,37.8,30.18,SW,235,0.0,0.0,82,0.00,CLR,,0.00,WeatherDisplay:10.37,2013-11-09 13:13:00,
2013-11-09 07:18:00,43.1,38.0,30.18,SSW,194,1.0,0.0,82,0.00,CLR,,0.00,WeatherDisplay:10.37,2013-11-09 13:18:00,
2013-11-09 07:23:00,43.3,38.2,30.18,SW,229,0.0,0.0,82,0.00,CLR,,0.00,WeatherDisplay:10.37,2013-11-09 13:23:00,
2013-11-09 07:28:00,43.8,38.7,30.18,SSW,203,0.0,0.0,82,0.00,CLR,,0.00,WeatherDisplay:10.37,2013-11-09 13:28:00,
2013-11-09 07:33:00,44.2,38.7,30.18,SW,224,3.5,3.5,81,0.00,CLR,,0.00,WeatherDisplay:10.37,2013-11-09 13:33:00,
2013-11-09 07:38:00,44.7,39.2,30.18,SW,228,0.0,0.0,81,0.00,CLR,,0.00,WeatherDisplay:10.37,2013-11-09 13:38:00,
2013-11-09 07:43:00,45.1,39.3,30.19,WSW,248,3.5,3.5,80,0.00,CLR,,0.00,WeatherDisplay:10.37,2013-11-09 13:43:00,
2013-11-09 07:48:00,45.6,39.5,30.19,South,182,6.9,6.9,79,0.00,CLR,,0.00,WeatherDisplay:10.37,2013-11-09 13:48:00,
2013-11-09 07:53:00,46.1,39.6,30.19,WSW,246,5.8,5.8,78,0.00,CLR,,0.00,WeatherDisplay:10.37,2013-11-09 13:53:00,
2013-11-09 07:58:00,46.7,39.9,30.19,WSW,246,6.0,6.0,77,0.00,CLR,,0.00,WeatherDisplay:10.37,2013-11-09 13:58:00,
2013-11-09 08:03:00,47.2,40.0,30.19,WSW,252,1.1,1.1,76,0.00,CLR,,0.00,WeatherDisplay:10.37,2013-11-09 14:03:00,
2013-11-09 08:08:00,47.5,40.0,30.19,SW,227,4.6,4.6,75,0.00,CLR,,0.00,WeatherDisplay:10.37,2013-11-09 14:08:00,
2013-11-09 08:13:00,47.8,39.9,30.19,WNW,285,4.6,4.6,74,0.00,CLR,,0.00,WeatherDisplay:10.37,2013-11-09 14:13:00,
2013-11-09 08:18:00,48.1,39.9,30.19,SW,217,4.6,4.6,73,0.00,CLR,,0.00,WeatherDisplay:10.37,2013-11-09 14:18:00,
2013-11-09 08:23:00,48.3,40.0,30.19,SW,224,1.1,0.0,73,0.00,CLR,,0.00,WeatherDisplay:10.37,2013-11-09 14:23:00,
2013-11-09 08:28:00,48.5,39.9,30.19,WSW,239,2.3,2.3,72,0.00,CLR,,0.00,WeatherDisplay:10.37,2013-11-09 14:28:00,
2013-11-09 08:33:00,48.7,40.1,30.19,SSW,209,3.5,3.5,72,0.00,CLR,,0.00,WeatherDisplay:10.37,2013-11-09 14:33:00,
2013-11-09 08:38:00,48.9,40.3,30.19,SSW,207,3.5,3.5,72,0.00,CLR,,0.00,WeatherDisplay:10.37,2013-11-09 14:38:00,
2013-11-09 08:43:00,49.2,40.2,30.19,SW,220,2.3,2.3,71,0.00,CLR,,0.00,WeatherDisplay:10.37,2013-11-09 14:43:00,
2013-11-09 08:48:00,49.6,40.9,30.19,West,263,6.9,6.9,72,0.00,CLR,,0.00,WeatherDisplay:10.37,2013-11-09 14:48:00,
2013-11-09 08:53:00,50.2,41.2,30.19,SW,225,3.5,3.5,71,0.00,CLR,,0.00,WeatherDisplay:10.37,2013-11-09 14:53:00,
2013-11-09 08:58:00,50.5,41.1,30.19,WSW,249,0.0,0.0,70,0.00,CLR,,0.00,WeatherDisplay:10.37,2013-11-09 14:58:00,
2013-11-09 09:03:00,50.7,41.3,30.19,SW,231,3.5,3.5,70,0.00,CLR,,0.00,WeatherDisplay:10.37,2013-11-09 15:03:00,
2013-11-09 09:08:00,51.0,41.2,30.19,SW,229,3.5,3.5,69,0.00,CLR,,0.00,WeatherDisplay:10.37,2013-11-09 15:08:00,
2013-11-09 09:13:00,51.2,41.7,30.19,SW,228,3.5,3.5,70,0.00,CLR,,0.00,WeatherDisplay:10.37,2013-11-09 15:13:00,
2013-11-09 09:18:00,51.7,42.2,30.19,SSW,200,4.6,4.6,70,0.00,CLR,,0.00,WeatherDisplay:10.37,2013-11-09 15:18:00,
2013-11-09 09:23:00,52.2,42.7,30.18,WSW,250,3.5,3.5,70,0.00,CLR,,0.00,WeatherDisplay:10.37,2013-11-09 15:23:00,
2013-11-09 09:28:00,52.6,43.1,30.18,South,186,3.5,3.5,70,0.00,CLR,,0.00,WeatherDisplay:10.37,2013-11-09 15:28:00,
2013-11-09 09:33:00,53.1,43.2,30.18,WSW,243,6.9,6.9,69,0.00,CLR,,0.00,WeatherDisplay:10.37,2013-11-09 15:33:00,
2013-11-09 09:38:00,53.4,43.1,30.18,SSW,208,4.6,4.6,68,0.00,CLR,,0.00,WeatherDisplay:10.37,2013-11-09 15:38:00,
2013-11-09 09:43:00,53.7,43.0,30.18,SW,224,7.0,7.0,67,0.00,CLR,,0.00,WeatherDisplay:10.37,2013-11-09 15:43:00,
2013-11-09 09:48:00,54.0,43.3,30.18,SW,215,6.9,6.9,67,0.00,CLR,,0.00,WeatherDisplay:10.37,2013-11-09 15:48:00,
2013-11-09 09:53:00,54.3,43.6,30.18,South,175,12.7,12.7,67,0.00,CLR,,0.00,WeatherDisplay:10.37,2013-11-09 15:53:00,
2013-11-09 09:58:00,54.7,43.6,30.18,SE,146,8.1,8.1,66,0.00,CLR,,0.00,WeatherDisplay:10.37,2013-11-09 15:58:00,
2013-11-09 10:03:00,55.1,43.5,30.17,WSW,249,10.4,10.4,65,0.00,CLR,,0.00,WeatherDisplay:10.37,2013-11-09 16:03:00,
2013-11-09 10:08:00,55.5,44.3,30.17,WSW,242,5.8,5.8,66,0.00,CLR,,0.00,WeatherDisplay:10.37,2013-11-09 16:08:00,
2013-11-09 10:13:00,55.9,44.3,30.17,SSE,161,8.1,8.1,65,0.00,CLR,,0.00,WeatherDisplay:10.37,2013-11-09 16:13:00,
2013-11-09 10:18:00,56.4,44.0,30.17,South,188,11.5,11.5,63,0.00,CLR,,0.00,WeatherDisplay:10.37,2013-11-09 16:18:00,
2013-11-09 10:23:00,56.7,44.7,30.17,SW,223,10.4,10.4,64,0.00,CLR,,0.00,WeatherDisplay:10.37,2013-11-09 16:23:00,
2013-11-09 10:28:00,57.0,44.1,30.17,SW,226,12.0,12.0,62,0.00,CLR,,0.00,WeatherDisplay:10.37,2013-11-09 16:28:00,
2013-11-09 10:33:00,57.1,43.8,30.17,SW,236,15.0,15.0,61,0.00,CLR,,0.00,WeatherDisplay:10.37,2013-11-09 16:33:00,
2013-11-09 10:38:00,57.3,44.0,30.17,SSW,198,11.5,11.5,61,0.00,CLR,,0.00,WeatherDisplay:10.37,2013-11-09 16:38:00,
2013-11-09 10:43:00,57.7,43.9,30.17,WSW,244,11.0,11.0,60,0.00,CLR,,0.00,WeatherDisplay:10.37,2013-11-09 16:43:00,
2013-11-09 10:48:00,57.8,44.0,30.17,WSW,240,18.0,18.0,60,0.00,CLR,,0.00,WeatherDisplay:10.37,2013-11-09 16:48:00,
2013-11-09 10:53:00,57.9,43.7,30.17,WSW,241,14.0,14.0,59,0.00,CLR,,0.00,WeatherDisplay:10.37,2013-11-09 16:53:00,
2013-11-09 10:58:00,58.1,44.7,30.17,SSW,206,15.0,15.0,61,0.00,CLR,,0.00,WeatherDisplay:10.37,2013-11-09 16:58:00,
2013-11-09 11:03:00,58.2,44.4,30.16,SW,234,10.4,10.4,60,0.00,CLR,,0.00,WeatherDisplay:10.37,2013-11-09 17:03:00,
2013-11-09 11:08:00,58.6,45.6,30.17,WSW,250,6.0,6.0,62,0.00,CLR,,0.00,WeatherDisplay:10.37,2013-11-09 17:08:00,
2013-11-09 11:13:00,58.9,45.0,30.16,SW,229,7.0,7.0,60,0.00,CLR,,0.00,WeatherDisplay:10.37,2013-11-09 17:13:00,
2013-11-09 11:18:00,58.9,44.6,30.16,SW,231,5.8,5.8,59,0.00,CLR,,0.00,WeatherDisplay:10.37,2013-11-09 17:18:00,
2013-11-09 11:23:00,59.0,44.7,30.16,SSW,213,17.3,17.3,59,0.00,CLR,,0.00,WeatherDisplay:10.37,2013-11-09 17:23:00,
2013-11-09 11:28:00,59.1,44.8,30.16,SW,229,14.0,14.0,59,0.00,CLR,,0.00,WeatherDisplay:10.37,2013-11-09 17:28:00,
2013-11-09 11:33:00,59.4,45.1,30.15,SSW,201,11.5,11.5,59,0.00,CLR,,0.00,WeatherDisplay:10.37,2013-11-09 17:33:00,
2013-11-09 11:38:00,59.8,45.0,30.14,WSW,244,11.5,11.5,58,0.00,CLR,,0.00,WeatherDisplay:10.37,2013-11-09 17:38:00,
2013-11-09 11:43:00,60.2,45.4,30.14,SSW,196,11.5,11.5,58,0.00,CLR,,0.00,WeatherDisplay:10.37,2013-11-09 17:43:00,
2013-11-09 11:48:00,60.5,45.6,30.13,South,184,9.2,9.2,58,0.00,CLR,,0.00,WeatherDisplay:10.37,2013-11-09 17:48:00,
2013-11-09 11:53:00,61.1,45.3,30.13,WSW,251,11.5,11.5,56,0.00,CLR,,0.00,WeatherDisplay:10.37,2013-11-09 17:53:00,
2013-11-09 11:58:00,61.6,45.7,30.13,WSW,238,9.2,9.2,56,0.00,CLR,,0.00,WeatherDisplay:10.37,2013-11-09 17:58:00,
2013-11-09 12:03:00,62.1,45.7,30.12,SW,224,8.0,8.0,55,0.00,CLR,,0.00,WeatherDisplay:10.37,2013-11-09 18:03:00,
2013-11-09 12:08:00,62.0,45.2,30.12,SSW,197,9.2,9.2,54,0.00,CLR,,0.00,WeatherDisplay:10.37,2013-11-09 18:08:00,
2013-11-09 12:13:00,61.8,45.0,30.12,SW,229,6.9,7.0,54,0.00,CLR,,0.00,WeatherDisplay:10.37,2013-11-09 18:13:00,
2013-11-09 12:18:00,61.7,45.4,30.11,SSW,196,11.5,11.5,55,0.00,CLR,,0.00,WeatherDisplay:10.37,2013-11-09 18:18:00,
2013-11-09 12:23:00,61.8,45.0,30.11,WSW,249,12.7,12.7,54,0.00,CLR,,0.00,WeatherDisplay:10.37,2013-11-09 18:23:00,
2013-11-09 12:28:00,62.0,46.1,30.11,WSW,251,5.8,5.8,56,0.00,CLR,,0.00,WeatherDisplay:10.37,2013-11-09 18:28:00,
2013-11-09 12:33:00,62.3,44.9,30.11,West,276,11.5,11.5,53,0.00,CLR,,0.00,WeatherDisplay:10.37,2013-11-09 18:33:00,
2013-11-09 12:38:00,62.6,45.2,30.11,SW,233,17.3,17.3,53,0.00,CLR,,0.00,WeatherDisplay:10.37,2013-11-09 18:38:00,
2013-11-09 12:43:00,62.5,45.6,30.11,SSE,161,17.3,17.3,54,0.00,CLR,,0.00,WeatherDisplay:10.37,2013-11-09 18:43:00,
2013-11-09 12:48:00,62.7,46.3,30.11,SW,225,10.4,10.4,55,0.00,CLR,,0.00,WeatherDisplay:10.37,2013-11-09 18:48:00,
2013-11-09 12:54:00,62.7,46.3,30.11,South,191,8.1,8.1,55,0.00,CLR,,0.00,WeatherDisplay:10.37,2013-11-09 18:54:00,
2013-11-09 12:59:00,62.3,45.4,30.10,WSW,242,10.4,10.4,54,0.00,CLR,,0.00,WeatherDisplay:10.37,2013-11-09 18:59:00,
2013-11-09 13:04:00,61.8,45.0,30.10,SW,222,11.0,11.0,54,0.00,CLR,,0.00,WeatherDisplay:10.37,2013-11-09 19:04:00,
2013-11-09 13:09:00,61.8,45.5,30.10,WSW,238,9.0,9.0,55,0.00,CLR,,0.00,WeatherDisplay:10.37,2013-11-09 19:09:00,
2013-11-09 13:14:00,62.2,45.3,30.10,SW,214,11.5,11.5,54,0.00,CLR,,0.00,WeatherDisplay:10.37,2013-11-09 19:14:00,
2013-11-09 13:19:00,62.4,45.0,30.10,SSW,205,15.0,15.0,53,0.00,CLR,,0.00,WeatherDisplay:10.37,2013-11-09 19:19:00,
2013-11-09 13:24:00,62.3,45.4,30.10,SW,219,6.9,6.9,54,0.00,CLR,,0.00,WeatherDisplay:10.37,2013-11-09 19:24:00,
2013-11-09 13:29:00,62.8,45.9,30.10,SW,214,12.7,12.7,54,0.00,CLR,,0.00,WeatherDisplay:10.37,2013-11-09 19:29:00,
2013-11-09 13:34:00,63.2,45.8,30.10,SSE,150,9.2,9.2,53,0.00,CLR,,0.00,WeatherDisplay:10.37,2013-11-09 19:34:00,
2013-11-09 13:39:00,63.2,45.3,30.11,WSW,250,11.5,11.5,52,0.00,CLR,,0.00,WeatherDisplay:10.37,2013-11-09 19:39:00,
2013-11-09 13:44:00,63.4,46.9,30.10,SW,221,10.0,10.0,55,0.00,CLR,,0.00,WeatherDisplay:10.37,2013-11-09 19:44:00,
2013-11-09 13:49:00,63.4,45.5,30.10,WSW,246,11.5,11.5,52,0.00,CLR,,0.00,WeatherDisplay:10.37,2013-11-09 19:49:00,
2013-11-09 13:54:00,63.4,45.5,30.11,SW,220,13.8,13.8,52,0.00,CLR,,0.00,WeatherDisplay:10.37,2013-11-09 19:54:00,
2013-11-09 13:59:00,63.1,45.2,30.10,WSW,252,15.0,15.0,52,0.00,CLR,,0.00,WeatherDisplay:10.37,2013-11-09 19:59:00,
2013-11-09 14:04:00,63.0,45.6,30.11,SSW,205,11.5,11.5,53,0.00,CLR,,0.00,WeatherDisplay:10.37,2013-11-09 20:04:00,
2013-11-09 14:09:00,63.1,46.2,30.10,SW,236,11.0,11.0,54,0.00,CLR,,0.00,WeatherDisplay:10.37,2013-11-09 20:09:00,
2013-11-09 14:14:00,63.1,45.7,30.10,WSW,239,13.8,13.8,53,0.00,CLR,,0.00,WeatherDisplay:10.37,2013-11-09 20:14:00,
2013-11-09 14:19:00,62.8,45.9,30.10,WSW,239,12.7,12.7,54,0.00,CLR,,0.00,WeatherDisplay:10.37,2013-11-09 20:19:00,
2013-11-09 14:24:00,62.9,46.5,30.10,WSW,244,8.1,8.1,55,0.00,CLR,,0.00,WeatherDisplay:10.37,2013-11-09 20:24:00,
2013-11-09 14:29:00,63.0,46.6,30.10,WSW,245,13.8,13.8,55,0.00,CLR,,0.00,WeatherDisplay:10.37,2013-11-09 20:29:00,
2013-11-09 14:34:00,62.8,46.9,30.10,SW,217,9.2,9.2,56,0.00,CLR,,0.00,WeatherDisplay:10.37,2013-11-09 20:34:00,
2013-11-09 14:39:00,62.8,46.4,30.10,SW,229,13.0,13.0,55,0.00,CLR,,0.00,WeatherDisplay:10.37,2013-11-09 20:39:00,
2013-11-09 14:44:00,62.7,47.2,30.10,SW,234,15.0,15.0,57,0.00,CLR,,0.00,WeatherDisplay:10.37,2013-11-09 20:44:00,
2013-11-09 14:49:00,62.7,47.2,30.11,SW,216,8.1,8.1,57,0.00,CLR,,0.00,WeatherDisplay:10.37,2013-11-09 20:49:00,
2013-11-09 14:54:00,62.7,47.2,30.11,SW,228,5.8,5.8,57,0.00,CLR,,0.00,WeatherDisplay:10.37,2013-11-09 20:54:00,
2013-11-09 14:59:00,62.5,47.1,30.11,SW,214,6.9,6.9,57,0.00,CLR,,0.00,WeatherDisplay:10.37,2013-11-09 20:59:00,
2013-11-09 15:04:00,62.6,47.1,30.11,SW,228,6.9,6.9,57,0.00,CLR,,0.00,WeatherDisplay:10.37,2013-11-09 21:04:00,
2013-11-09 15:09:00,62.6,47.1,30.10,SW,235,3.5,3.5,57,0.00,CLR,,0.00,WeatherDisplay:10.37,2013-11-09 21:09:00,
2013-11-09 15:14:00,62.8,47.3,30.11,South,184,3.5,3.5,57,0.00,CLR,,0.00,WeatherDisplay:10.37,2013-11-09 21:14:00,
2013-11-09 15:19:00,62.9,47.4,30.11,SSW,208,5.8,5.8,57,0.00,CLR,,0.00,WeatherDisplay:10.37,2013-11-09 21:19:00,
2013-11-09 15:24:00,63.0,47.1,30.11,SW,223,6.0,6.0,56,0.00,CLR,,0.00,WeatherDisplay:10.37,2013-11-09 21:24:00,
2013-11-09 15:29:00,62.8,46.9,30.11,SW,227,8.1,8.1,56,0.00,CLR,,0.00,WeatherDisplay:10.37,2013-11-09 21:29:00,
2013-11-09 15:34:00,62.5,47.1,30.12,WSW,245,4.6,4.6,57,0.00,CLR,,0.00,WeatherDisplay:10.37,2013-11-09 21:34:00,
2013-11-09 15:39:00,62.5,47.1,30.12,SW,221,2.3,2.3,57,0.00,CLR,,0.00,WeatherDisplay:10.37,2013-11-09 21:39:00,
2013-11-09 15:44:00,62.6,47.1,30.12,WSW,244,9.2,9.2,57,0.00,CLR,,0.00,WeatherDisplay:10.37,2013-11-09 21:44:00,
2013-11-09 15:49:00,62.3,46.4,30.12,SW,231,6.9,6.9,56,0.00,CLR,,0.00,WeatherDisplay:10.37,2013-11-09 21:49:00,
2013-11-09 15:54:00,61.8,46.4,30.12,SW,225,10.4,10.4,57,0.00,CLR,,0.00,WeatherDisplay:10.37,2013-11-09 21:54:00,
2013-11-09 15:59:00,61.4,46.5,30.12,SW,216,3.5,3.5,58,0.00,CLR,,0.00,WeatherDisplay:10.37,2013-11-09 21:59:00,
2013-11-09 16:04:00,61.1,47.1,30.12,SW,236,5.8,5.8,60,0.00,CLR,,0.00,WeatherDisplay:10.37,2013-11-09 22:04:00,
2013-11-09 16:09:00,60.8,46.8,30.12,SW,224,4.0,4.0,60,0.00,CLR,,0.00,WeatherDisplay:10.37,2013-11-09 22:09:00,
2013-11-09 16:14:00,60.4,46.9,30.13,SSW,193,5.8,5.8,61,0.00,CLR,,0.00,WeatherDisplay:10.37,2013-11-09 22:14:00,
2013-11-09 16:19:00,60.2,46.7,30.13,SW,222,4.6,4.6,61,0.00,CLR,,0.00,WeatherDisplay:10.37,2013-11-09 22:19:00,
2013-11-09 16:24:00,59.9,46.8,30.13,SW,225,6.9,6.9,62,0.00,CLR,,0.00,WeatherDisplay:10.37,2013-11-09 22:24:00,
2013-11-09 16:29:00,59.5,46.5,30.13,WSW,248,3.5,3.5,62,0.00,CLR,,0.00,WeatherDisplay:10.37,2013-11-09 22:29:00,
2013-11-09 16:34:00,59.2,46.2,30.13,WSW,248,3.5,3.5,62,0.00,CLR,,0.00,WeatherDisplay:10.37,2013-11-09 22:34:00,
2013-11-09 16:39:00,58.8,46.2,30.13,SW,229,0.0,0.0,63,0.00,CLR,,0.00,WeatherDisplay:10.37,2013-11-09 22:39:00,
2013-11-09 16:44:00,58.3,46.2,30.14,WSW,242,3.5,3.5,64,0.00,CLR,,0.00,WeatherDisplay:10.37,2013-11-09 22:44:00,
2013-11-09 16:49:00,58.0,45.9,30.14,SW,227,4.6,4.6,64,0.00,CLR,,0.00,WeatherDisplay:10.37,2013-11-09 22:49:00,
2013-11-09 16:54:00,57.5,45.8,30.14,SW,235,3.5,3.5,65,0.00,CLR,,0.00,WeatherDisplay:10.37,2013-11-09 22:54:00,
2013-11-09 16:59:00,57.2,45.9,30.14,SSW,213,1.1,0.0,66,0.00,CLR,,0.00,WeatherDisplay:10.37,2013-11-09 22:59:00,
2013-11-09 17:04:00,56.9,46.1,30.14,SW,220,3.5,3.5,67,0.00,CLR,,0.00,WeatherDisplay:10.37,2013-11-09 23:04:00,
2013-11-09 17:09:00,56.6,45.8,30.15,WSW,238,3.5,3.5,67,0.00,CLR,,0.00,WeatherDisplay:10.37,2013-11-09 23:09:00,
2013-11-09 17:14:00,56.2,45.8,30.15,SW,229,3.5,3.5,68,0.00,CLR,,0.00,WeatherDisplay:10.37,2013-11-09 23:14:00,
2013-11-09 17:19:00,56.0,45.6,30.15,SW,217,2.3,2.3,68,0.00,CLR,,0.00,WeatherDisplay:10.37,2013-11-09 23:19:00,
2013-11-09 17:24:00,55.8,45.8,30.15,WSW,238,3.5,3.5,69,0.00,CLR,,0.00,WeatherDisplay:10.37,2013-11-09 23:24:00,
2013-11-09 17:29:00,55.7,45.7,30.15,WSW,238,0.0,0.0,69,0.00,CLR,,0.00,WeatherDisplay:10.37,2013-11-09 23:29:00,
2013-11-09 17:34:00,55.5,45.5,30.16,SW,223,0.0,0.0,69,0.00,CLR,,0.00,WeatherDisplay:10.37,2013-11-09 23:34:00,
2013-11-09 17:39:00,55.3,45.7,30.16,SSW,209,0.0,0.0,70,0.00,CLR,,0.00,WeatherDisplay:10.37,2013-11-09 23:39:00,
2013-11-09 17:44:00,55.1,45.9,30.16,SSW,209,0.0,0.0,71,0.00,CLR,,0.00,WeatherDisplay:10.37,2013-11-09 23:44:00,
2013-11-09 17:49:00,54.9,45.7,30.16,SSW,209,0.0,0.0,71,0.00,CLR,,0.00,WeatherDisplay:10.37,2013-11-09 23:49:00,
2013-11-09 17:54:00,54.7,45.5,30.16,SSW,209,0.0,0.0,71,0.00,CLR,,0.00,WeatherDisplay:10.37,2013-11-09 23:54:00,
2013-11-09 18:00:00,54.4,45.6,30.16,SSW,209,0.0,0.0,72,0.00,CLR,,0.00,WeatherDisplay:10.37,2013-11-10 00:00:00,
2013-11-09 18:05:00,54.2,45.7,30.17,SSW,209,0.0,0.0,73,0.00,CLR,,0.00,WeatherDisplay:10.37,2013-11-10 00:05:00,
2013-11-09 18:10:00,54.0,45.5,30.17,SSW,209,0.0,0.0,73,0.00,CLR,,0.00,WeatherDisplay:10.37,2013-11-10 00:10:00,
2013-11-09 18:15:00,53.9,45.8,30.17,SSW,209,0.0,0.0,74,0.00,CLR,,0.00,WeatherDisplay:10.37,2013-11-10 00:15:00,
2013-11-09 18:20:00,53.7,45.6,30.16,SSW,209,0.0,0.0,74,0.00,CLR,,0.00,WeatherDisplay:10.37,2013-11-10 00:20:00,
2013-11-09 18:25:00,53.6,45.5,30.17,SSW,209,0.0,0.0,74,0.00,CLR,,0.00,WeatherDisplay:10.37,2013-11-10 00:25:00,
2013-11-09 18:30:00,53.4,45.3,30.17,SSW,209,0.0,0.0,74,0.00,CLR,,0.00,WeatherDisplay:10.37,2013-11-10 00:30:00,
2013-11-09 18:35:00,53.2,45.1,30.17,SSW,213,0.0,2.0,74,0.00,CLR,,0.00,WeatherDisplay:10.37,2013-11-10 00:35:00,
2013-11-09 18:40:00,52.8,45.1,30.17,SW,231,0.0,0.0,75,0.00,CLR,,0.00,WeatherDisplay:10.37,2013-11-10 00:40:00,
2013-11-09 18:45:00,52.6,45.2,30.17,SW,231,0.0,0.0,76,0.00,CLR,,0.00,WeatherDisplay:10.37,2013-11-10 00:45:00,
2013-11-09 18:50:00,52.3,45.0,30.17,SW,222,0.0,0.0,76,0.00,CLR,,0.00,WeatherDisplay:10.37,2013-11-10 00:50:00,
2013-11-09 18:55:00,52.1,44.8,30.17,SSW,210,0.0,0.0,76,0.00,CLR,,0.00,WeatherDisplay:10.37,2013-11-10 00:55:00,
2013-11-09 19:00:00,52.0,45.0,30.17,SSW,210,0.0,0.0,77,0.00,CLR,,0.00,WeatherDisplay:10.37,2013-11-10 01:00:00,
2013-11-09 19:05:00,51.9,44.6,30.17,SSW,210,0.0,1.0,76,0.00,CLR,,0.00,WeatherDisplay:10.37,2013-11-10 01:05:00,
2013-11-09 19:10:00,51.9,44.6,30.17,SSW,210,0.0,0.0,76,0.00,CLR,,0.00,WeatherDisplay:10.37,2013-11-10 01:10:00,
2013-11-09 19:15:00,51.8,44.8,30.16,SSW,211,0.0,2.0,77,0.00,CLR,,0.00,WeatherDisplay:10.37,2013-11-10 01:15:00,
2013-11-09 19:20:00,51.8,44.8,30.16,SSW,213,2.3,0.0,77,0.00,CLR,,0.00,WeatherDisplay:10.37,2013-11-10 01:20:00,
2013-11-09 19:25:00,51.7,44.7,30.16,SSW,211,2.3,0.0,77,0.00,CLR,,0.00,WeatherDisplay:10.37,2013-11-10 01:25:00,
2013-11-09 19:30:00,51.7,44.7,30.17,SSW,208,0.0,2.0,77,0.00,CLR,,0.00,WeatherDisplay:10.37,2013-11-10 01:30:00,
2013-11-09 19:35:00,51.6,44.6,30.17,SSW,202,0.0,0.0,77,0.00,CLR,,0.00,WeatherDisplay:10.37,2013-11-10 01:35:00,
2013-11-09 19:40:00,51.5,44.5,30.17,SSW,204,0.0,1.0,77,0.00,CLR,,0.00,WeatherDisplay:10.37,2013-11-10 01:40:00,
2013-11-09 19:45:00,51.5,44.5,30.17,SW,219,0.0,0.0,77,0.00,CLR,,0.00,WeatherDisplay:10.37,2013-11-10 01:45:00,
2013-11-09 19:50:00,51.5,44.5,30.17,SW,217,0.0,1.0,77,0.00,CLR,,0.00,WeatherDisplay:10.37,2013-11-10 01:50:00,
2013-11-09 19:55:00,51.4,44.4,30.17,SSW,211,0.0,3.0,77,0.00,CLR,,0.00,WeatherDisplay:10.37,2013-11-10 01:55:00,
2013-11-09 20:00:00,51.5,44.5,30.17,SSW,212,0.0,2.0,77,0.00,CLR,,0.00,WeatherDisplay:10.37,2013-11-10 02:00:00,
2013-11-09 20:05:00,51.5,44.5,30.17,SW,232,3.5,3.5,77,0.00,CLR,,0.00,WeatherDisplay:10.37,2013-11-10 02:05:00,
2013-11-09 20:10:00,51.5,44.5,30.17,SSW,203,4.6,4.6,77,0.00,CLR,,0.00,WeatherDisplay:10.37,2013-11-10 02:10:00,
2013-11-09 20:15:00,51.6,45.0,30.17,SSW,207,0.0,3.0,78,0.00,CLR,,0.00,WeatherDisplay:10.37,2013-11-10 02:15:00,
2013-11-09 20:20:00,51.7,45.1,30.17,SW,225,3.5,3.5,78,0.00,CLR,,0.00,WeatherDisplay:10.37,2013-11-10 02:20:00,
2013-11-09 20:25:00,51.7,45.1,30.17,SW,216,1.0,4.0,78,0.00,CLR,,0.00,WeatherDisplay:10.37,2013-11-10 02:25:00,
2013-11-09 20:30:00,51.8,45.2,30.17,SSW,212,3.5,3.5,78,0.00,CLR,,0.00,WeatherDisplay:10.37,2013-11-10 02:30:00,
2013-11-09 20:35:00,51.9,45.3,30.17,SSW,196,1.1,1.1,78,0.00,CLR,,0.00,WeatherDisplay:10.37,2013-11-10 02:35:00,
2013-11-09 20:40:00,51.9,45.3,30.17,SSW,207,1.0,5.0,78,0.00,CLR,,0.00,WeatherDisplay:10.37,2013-11-10 02:40:00,
2013-11-09 20:45:00,52.0,45.4,30.17,SW,224,2.3,2.3,78,0.00,CLR,,0.00,WeatherDisplay:10.37,2013-11-10 02:45:00,
2013-11-09 20:50:00,52.0,45.0,30.17,SSW,209,3.5,3.5,77,0.00,CLR,,0.00,WeatherDisplay:10.37,2013-11-10 02:50:00,
2013-11-09 20:55:00,52.0,45.0,30.17,SW,219,0.0,3.0,77,0.00,CLR,,0.00,WeatherDisplay:10.37,2013-11-10 02:55:00,
2013-11-09 21:00:00,51.9,45.3,30.17,SSW,211,2.3,2.3,78,0.00,CLR,,0.00,WeatherDisplay:10.37,2013-11-10 03:00:00,
2013-11-09 21:05:00,51.9,45.3,30.18,SW,225,1.0,5.0,78,0.00,CLR,,0.00,WeatherDisplay:10.37,2013-11-10 03:05:00,
2013-11-09 21:10:00,51.9,45.2,30.18,SW,215,1.0,3.0,78,0.00,CLR,,0.00,WeatherDisplay:10.37,2013-11-10 03:10:00,
2013-11-09 21:15:00,51.8,45.2,30.18,SSW,208,1.1,1.1,78,0.00,CLR,,0.00,WeatherDisplay:10.37,2013-11-10 03:15:00,
2013-11-09 21:20:00,51.8,45.2,30.18,SW,223,1.1,1.1,78,0.00,CLR,,0.00,WeatherDisplay:10.37,2013-11-10 03:20:00,
2013-11-09 21:25:00,51.7,45.1,30.18,SW,221,3.5,3.5,78,0.00,CLR,,0.00,WeatherDisplay:10.37,2013-11-10 03:25:00,
2013-11-09 21:30:00,51.7,45.4,30.18,SSW,202,2.3,2.3,79,0.00,CLR,,0.00,WeatherDisplay:10.37,2013-11-10 03:30:00,
2013-11-09 21:35:00,51.7,45.4,30.18,SW,227,1.1,1.1,79,0.00,CLR,,0.00,WeatherDisplay:10.37,2013-11-10 03:35:00,
2013-11-09 21:40:00,51.6,45.3,30.18,SSW,198,3.5,3.5,79,0.00,CLR,,0.00,WeatherDisplay:10.37,2013-11-10 03:40:00,
2013-11-09 21:45:00,51.5,45.5,30.18,South,188,4.6,4.6,80,0.00,CLR,,0.00,WeatherDisplay:10.37,2013-11-10 03:45:00,
2013-11-09 21:50:00,51.5,45.5,30.18,SW,217,4.6,4.6,80,0.00,CLR,,0.00,WeatherDisplay:10.37,2013-11-10 03:50:00,
2013-11-09 21:55:00,51.6,45.6,30.18,SW,228,5.8,5.8,80,0.00,CLR,,0.00,WeatherDisplay:10.37,2013-11-10 03:55:00,
2013-11-09 22:00:00,51.6,45.6,30.18,WSW,251,4.6,4.6,80,0.00,CLR,,0.00,WeatherDisplay:10.37,2013-11-10 04:00:00,
2013-11-09 22:05:00,51.6,45.6,30.18,SSW,207,5.8,5.8,80,0.00,CLR,,0.00,WeatherDisplay:10.37,2013-11-10 04:05:00,
2013-11-09 22:10:00,51.7,45.7,30.19,SW,230,4.6,4.6,80,0.00,CLR,,0.00,WeatherDisplay:10.37,2013-11-10 04:10:00,
2013-11-09 22:15:00,51.7,45.7,30.19,SW,227,3.5,3.5,80,0.00,CLR,,0.00,WeatherDisplay:10.37,2013-11-10 04:15:00,
2013-11-09 22:20:00,51.7,45.7,30.19,South,185,2.3,2.3,80,0.00,CLR,,0.00,WeatherDisplay:10.37,2013-11-10 04:20:00,
2013-11-09 22:25:00,51.7,45.7,30.19,SW,232,6.9,6.9,80,0.00,CLR,,0.00,WeatherDisplay:10.37,2013-11-10 04:25:00,
2013-11-09 22:30:00,51.6,45.6,30.19,WSW,242,3.5,3.5,80,0.00,CLR,,0.00,WeatherDisplay:10.37,2013-11-10 04:30:00,
2013-11-09 22:35:00,51.5,45.5,30.19,WSW,239,4.6,4.6,80,0.00,CLR,,0.00,WeatherDisplay:10.37,2013-11-10 04:35:00,
2013-11-09 22:40:00,51.5,45.5,30.19,WSW,240,5.8,5.8,80,0.00,CLR,,0.00,WeatherDisplay:10.37,2013-11-10 04:40:00,
2013-11-09 22:45:00,51.4,45.8,30.19,SW,230,6.9,6.9,81,0.00,CLR,,0.00,WeatherDisplay:10.37,2013-11-10 04:45:00,
2013-11-09 22:50:00,51.3,45.7,30.19,WSW,237,6.9,6.9,81,0.00,CLR,,0.00,WeatherDisplay:10.37,2013-11-10 04:50:00,
2013-11-09 22:55:00,51.2,45.6,30.19,WSW,244,2.3,2.3,81,0.00,CLR,,0.00,WeatherDisplay:10.37,2013-11-10 04:55:00,
2013-11-09 23:00:00,51.1,45.5,30.19,WSW,240,4.6,4.6,81,0.00,CLR,,0.00,WeatherDisplay:10.37,2013-11-10 05:00:00,
2013-11-09 23:01:00,51.1,45.5,30.19,West,263,4.6,4.6,81,0.00,CLR,,0.00,WeatherDisplay:10.37,2013-11-10 05:01:00,
2013-11-09 23:02:00,51.1,45.5,30.19,SW,222,3.5,3.5,81,0.00,CLR,,0.00,WeatherDisplay:10.37,2013-11-10 05:02:00,
2013-11-09 23:07:00,51.0,45.7,30.19,West,261,5.8,5.8,82,0.00,CLR,,0.00,WeatherDisplay:10.37,2013-11-10 05:07:00,
2013-11-09 23:12:00,50.9,45.6,30.19,SW,234,5.8,5.8,82,0.00,CLR,,0.00,WeatherDisplay:10.37,2013-11-10 05:12:00,
2013-11-09 23:17:00,50.8,45.5,30.19,WSW,250,5.8,5.8,82,0.00,CLR,,0.00,WeatherDisplay:10.37,2013-11-10 05:17:00,
2013-11-09 23:22:00,50.8,45.8,30.19,SW,214,4.6,4.6,83,0.00,CLR,,0.00,WeatherDisplay:10.37,2013-11-10 05:22:00,
2013-11-09 23:27:00,50.7,45.7,30.19,SW,221,3.5,3.5,83,0.00,CLR,,0.00,WeatherDisplay:10.37,2013-11-10 05:27:00,
2013-11-09 23:32:00,50.6,45.6,30.19,WSW,252,3.5,3.5,83,0.00,CLR,,0.00,WeatherDisplay:10.37,2013-11-10 05:32:00,
2013-11-09 23:37:00,50.5,45.5,30.19,SW,217,3.5,3.5,83,0.00,CLR,,0.00,WeatherDisplay:10.37,2013-11-10 05:37:00,
2013-11-09 23:42:00,50.4,45.4,30.19,SSW,206,2.3,2.3,83,0.00,CLR,,0.00,WeatherDisplay:10.37,2013-11-10 05:42:00,
2013-11-09 23:47:00,50.2,45.6,30.19,WSW,238,1.1,1.1,84,0.00,CLR,,0.00,WeatherDisplay:10.37,2013-11-10 05:47:00,
2013-11-09 23:52:00,50.1,45.5,30.20,SW,220,3.5,3.5,84,0.00,CLR,,0.00,WeatherDisplay:10.37,2013-11-10 05:52:00,
2013-11-09 23:57:00,49.9,45.3,30.19,WSW,249,3.5,3.5,84,0.00,CLR,,0.00,WeatherDisplay:10.37,2013-11-10 05:57:00,